Saint Michaels, AZ

9:07 PM MST on February 12, 2016 (GMT -0700)
Window Rock

Weather History for KRQE - January, 2013

Change the Weather History Date:

Sunday, January 27, 2013

  Actual Average Record
Temperature  
Mean Temperature 42 °F -  
Max Temperature 46 °F 46 °F 62 °F (1986)
Min Temperature 37 °F 17 °F -17 °F (1965)
Degree Days  
Heating Degree Days 24    
Moisture  
Dew Point 36 °F    
Average Humidity 88    
Maximum Humidity 100    
Minimum Humidity 68    
Precipitation  
Precipitation 0.12 in - - ()
Sea Level Pressure  
Sea Level Pressure 29.91 in    
Wind  
Wind Speed 8 mph (SW)    
Max Wind Speed 16 mph    
Max Gust Speed 22 mph    
Visibility 9 miles    
Events Rain    
Averages and records for this station are not official NWS values.
T = Trace of Precipitation, MM = Missing Value Source: NWS Daily Summary

Daily Weather History Graph

Daily Weather History Graph

Search for Another Location

Airport or City:

Trip Planner

Search our weather history database for the weather conditions in past years. The results will help you decide how hot, cold, wet, or windy it might be!

Date:

Astronomy

Jan. 27, 2013 Rise Set
Actual Time 7:19 AM MST 5:39 PM MST
Civil Twilight 6:52 AM MST 6:06 PM MST
Nautical Twilight 6:21 AM MST 6:36 PM MST
Astronomical Twilight 5:51 AM MST 7:07 PM MST
Moon 6:32 PM MST (1/27) 7:17 AM MST (1/27)
Length of Visible Light 11h 13m
Length of Day
10h 19m
Full, 100% of the Moon is Illuminated
Jan 27
Full
Feb 3
Last Quarter
Feb 10
New
Feb 17
First Quarter
Feb 25
Full

Hourly Weather History & Observations

Time (MST) Temp. Windchill Dew Point Humidity Pressure Visibility Wind Dir Wind Speed Gust Speed Precip Events Conditions
12:38 AM 37.4 °F 33.8 °F 35.6 °F 93% 29.97 in 10.0 mi SSW 4.6 mph - 0.00 in   Overcast
12:53 AM 37.9 °F 34.4 °F 37.0 °F 97% 29.86 in 10.0 mi SSW 4.6 mph - 0.00 in   Overcast
1:53 AM 37.9 °F 33.5 °F 37.0 °F 97% 29.86 in 10.0 mi SSW 5.8 mph - 0.00 in Rain Light Rain
2:22 AM 37.4 °F 32.8 °F 37.4 °F 100% 29.98 in 5.0 mi SW 5.8 mph - 0.00 in Rain Light Rain
2:53 AM 37.9 °F 32.1 °F 36.0 °F 93% 29.86 in 10.0 mi SW 8.1 mph - 0.00 in   Overcast
3:53 AM 37.9 °F 30.5 °F 36.0 °F 93% 29.86 in 10.0 mi WSW 11.5 mph - N/A   Overcast
4:53 AM 37.0 °F 32.4 °F 35.1 °F 93% 29.86 in 10.0 mi SW 5.8 mph - N/A   Overcast
5:33 AM 37.4 °F 32.1 °F 35.6 °F 93% 29.98 in 10.0 mi SW 6.9 mph - N/A   Overcast
5:53 AM 37.0 °F 33.3 °F 36.0 °F 96% 29.87 in 10.0 mi SW 4.6 mph - 0.00 in Rain Light Rain
6:53 AM 37.0 °F 31.6 °F 36.0 °F 96% 29.88 in 5.0 mi SSW 6.9 mph - 0.01 in Rain Light Rain
7:02 AM 37.4 °F 32.8 °F 35.6 °F 93% 29.99 in 7.0 mi SSW 5.8 mph - 0.01 in Rain Light Rain
7:22 AM 37.4 °F 33.8 °F 35.6 °F 93% 30.00 in 10.0 mi SW 4.6 mph - 0.01 in Rain Light Rain
7:53 AM 37.0 °F 32.4 °F 36.0 °F 96% 29.91 in 2.5 mi SW 5.8 mph - 0.02 in Rain Light Rain
7:58 AM 37.4 °F 32.1 °F 35.6 °F 93% 30.00 in 3.0 mi SW 6.9 mph - 0.00 in Rain Light Rain
8:30 AM 37.4 °F 32.8 °F 35.6 °F 93% 30.01 in 10.0 mi SW 5.8 mph - 0.01 in   Overcast
8:53 AM 37.0 °F 34.5 °F 36.0 °F 96% 29.92 in 10.0 mi SW 3.5 mph - 0.01 in Rain Light Rain
9:53 AM 39.9 °F 33.9 °F 37.0 °F 89% 29.92 in 10.0 mi SW 9.2 mph - 0.01 in   Overcast
10:53 AM 41.0 °F 35.2 °F 37.0 °F 86% 29.92 in 10.0 mi SW 9.2 mph - 0.00 in Rain Light Rain
11:53 AM 42.1 °F 36.1 °F 37.0 °F 82% 29.91 in 10.0 mi SW 10.4 mph - 0.01 in Rain Light Rain
12:22 PM 42.8 °F 37.0 °F 37.4 °F 81% 30.00 in 10.0 mi SW 10.4 mph - 0.00 in   Mostly Cloudy
12:30 PM 42.8 °F 35.4 °F 37.4 °F 81% 29.99 in 10.0 mi SW 15.0 mph 18.4 mph 0.00 in   Overcast
12:53 PM 43.0 °F 36.4 °F 36.0 °F 76% 29.86 in 10.0 mi WSW 12.7 mph - 0.00 in   Overcast
1:53 PM 43.0 °F 36.8 °F 37.0 °F 80% 29.85 in 10.0 mi SW 11.5 mph - 0.00 in   Overcast
2:41 PM 44.6 °F 39.7 °F 35.6 °F 71% 29.96 in 10.0 mi SW 9.2 mph 18.4 mph 0.00 in   Mostly Cloudy
2:53 PM 46.9 °F - 37.0 °F 68% 29.80 in 10.0 mi SSW 11.5 mph 16.1 mph 0.00 in   Mostly Cloudy
3:41 PM 42.8 °F 35.1 °F 37.4 °F 81% 29.95 in 10.0 mi SSW 16.1 mph 21.9 mph 0.00 in Rain Light Rain
3:53 PM 39.9 °F 33.4 °F 37.0 °F 89% 29.85 in 4.0 mi SSW 10.4 mph 21.9 mph 0.01 in Rain Light Rain
4:01 PM 42.8 °F 37.0 °F 39.2 °F 87% 29.95 in 10.0 mi SSW 10.4 mph - 0.00 in   Overcast
4:31 PM 41.0 °F 33.5 °F 39.2 °F 93% 29.96 in 2.5 mi WSW 13.8 mph - 0.02 in Rain Light Rain
4:45 PM 39.2 °F 33.0 °F 35.6 °F 87% 29.96 in 10.0 mi West 9.2 mph - 0.05 in Rain Light Rain
4:53 PM 39.0 °F 35.7 °F 35.1 °F 86% 29.86 in 10.0 mi West 4.6 mph - 0.05 in Rain Light Rain
5:53 PM 39.9 °F 36.7 °F 37.0 °F 89% 29.84 in 10.0 mi South 4.6 mph - 0.00 in   Overcast
6:53 PM 39.9 °F 35.1 °F 37.0 °F 89% 29.86 in 10.0 mi South 6.9 mph - N/A   Overcast
7:53 PM 39.0 °F 31.4 °F 35.1 °F 86% 29.86 in 10.0 mi SSW 12.7 mph 21.9 mph N/A   Overcast
8:53 PM 39.0 °F 32.8 °F 35.1 °F 86% 29.85 in 10.0 mi SSW 9.2 mph - N/A   Overcast
9:53 PM 37.9 °F 30.9 °F 35.1 °F 89% 29.83 in 10.0 mi South 10.4 mph - N/A   Overcast
10:43 PM 37.4 °F 30.8 °F 35.6 °F 93% 29.92 in 10.0 mi South 9.2 mph - N/A   Overcast
10:53 PM 37.9 °F 30.9 °F 35.1 °F 89% 29.81 in 10.0 mi South 10.4 mph - N/A   Overcast
11:12 PM 39.2 °F 32.5 °F 33.8 °F 81% 29.92 in 10.0 mi SSW 10.4 mph 16.1 mph N/A   Overcast
11:53 PM 39.0 °F 31.4 °F 34.0 °F 82% 29.78 in 10.0 mi SSW 12.7 mph 19.6 mph N/A   Overcast